Weather History for Nagpur Sonegaon, India

Change the Weather History Date:

Monday, October 8, 2012

  Actual Average Record
Temperature  
Mean Temperature 81 °F -  
Max Temperature 92 °F 90 °F - ()
Min Temperature 70 °F 66 °F - ()
Cooling Degree Days 16    
Growing Degree Days 31 (Base 50)    
Moisture  
Dew Point 69 °F    
Average Humidity 66    
Maximum Humidity 93    
Minimum Humidity 34    
Precipitation  
Precipitation 0.00 in 0.08 in - ()
Sea Level Pressure  
Sea Level Pressure 29.83 in    
Wind  
Wind Speed 1 mph ()    
Max Wind Speed 6 mph    
Max Gust Speed -    
Visibility 2.5 miles    
Events      
T = Trace of Precipitation, MM = Missing Value Source: Averaged Metar Reports

Daily Weather History Graph

Daily Weather History Graph

Search for Another Location

Airport:

Trip Planner

Search our weather history database for the weather conditions in past years. The results will help you decide how hot, cold, wet, or windy it might be!

Date:

Astronomy

Oct. 08, 2012 Rise Set
Actual Time 6:06 AM IST 5:55 PM IST
Civil Twilight 5:44 AM IST 6:17 PM IST
Nautical Twilight 5:18 AM IST 6:43 PM IST
Astronomical Twilight 4:53 AM IST 7:08 PM IST
Moon 12:02 AM IST (10/9) 12:38 PM IST (10/8)
Length of Visible Light 12h 32m
Length of Day
11h 48m
Waning Gibbous, 50% of the Moon is Illuminated
Oct 8
Waning Gibbous
Oct 8
Last Quarter
Oct 15
New
Oct 22
First Quarter
Oct 30
Full

Hourly Weather History & Observations

Time (IST) Temp. Heat Index Dew Point Humidity Pressure Visibility Wind Dir Wind Speed Gust Speed Precip Events Conditions
12:10 AM 77.0 °F - 71.6 °F 83% 29.86 in 3.1 mi Calm Calm - N/A   Haze
2:10 AM 75.2 °F - 69.8 °F 83% 29.83 in 3.1 mi Calm Calm - N/A   Haze
2:30 AM 72 °F - 69 °F 87% 29.82 in 2 mi Calm Calm - -   Haze
3:10 AM 77.0 °F - 71.6 °F 83% 29.83 in 3.1 mi NNW 2.3 mph - N/A   Haze
4:10 AM 77.0 °F - 71.6 °F 83% 29.83 in 3.1 mi NNW 2.3 mph - N/A   Haze
5:30 AM 71 °F - 69 °F 93% 29.84 in 2 mi Calm Calm - -   Haze
6:10 AM 73.4 °F - 69.8 °F 88% 29.86 in 3.1 mi Calm Calm - N/A   Haze
7:10 AM 77.0 °F - 71.6 °F 83% 29.89 in 3.1 mi Calm Calm - N/A   Haze
8:10 AM 82.4 °F 89.5 °F 75.2 °F 79% 29.89 in 3.1 mi Calm Calm - N/A   Haze
8:30 AM 82 °F - 73 °F 67% 29.87 in 2 mi Calm Calm - -   Haze
9:10 AM 87.8 °F 97.6 °F 75.2 °F 66% 29.92 in 2.5 mi ESE 2.3 mph - N/A   Haze
10:10 AM 89.6 °F 102.2 °F 77.0 °F 66% 29.92 in 1.9 mi SE 2.3 mph - N/A   Haze
11:10 AM 93.2 °F 102.4 °F 73.4 °F 52% 29.89 in 1.9 mi SE 3.5 mph - N/A   Haze
11:30 AM 90 °F - 71 °F 44% 29.83 in 1 mi East 5.8 mph - -   Haze
1:10 PM 93.2 °F 96.2 °F 66.2 °F 41% 29.83 in - North - - N/A   Scattered Clouds
2:10 PM 93.2 °F 94.9 °F 64.4 °F 38% 29.80 in 3.7 mi East 3.5 mph - N/A   Partly Cloudy
2:30 PM 90 °F - 65 °F 34% 29.74 in 2 mi ESE 4.6 mph - -   Scattered Clouds
3:10 PM 95.0 °F 96.0 °F 62.6 °F 34% 29.80 in 3.7 mi East 4.6 mph - N/A   Partly Cloudy
4:10 PM 95.0 °F 97.0 °F 64.4 °F 36% 29.77 in - Calm Calm - N/A   Partly Cloudy
5:10 PM 91.4 °F 95.4 °F 68.0 °F 46% 29.77 in 3.1 mi Calm Calm - N/A   Haze
5:30 PM 83 °F - 75 °F 71% 29.74 in 2 mi Calm Calm - -   Haze
6:10 PM 86.0 °F 89.4 °F 68.0 °F 55% 29.80 in 3.1 mi Calm Calm - N/A   Haze
7:10 PM 80.6 °F 83.2 °F 68.0 °F 65% 29.80 in 3.1 mi Calm Calm - N/A   Haze
8:10 PM 78.8 °F - 66.2 °F 65% 29.83 in 3.1 mi West 2.3 mph - N/A   Haze
8:30 PM 72 °F - 67 °F 81% 29.81 in 2 mi Calm Calm - -   Haze
9:10 PM 77.0 °F - 64.4 °F 65% 29.83 in 2.5 mi NW 2.3 mph - N/A   Haze
11:10 PM 77.0 °F - 66.2 °F 69% 29.83 in 1.6 mi Calm Calm - N/A   Haze
11:30 PM 70 °F - 67 °F 87% 29.81 in 1 mi NW 2.3 mph - -   Haze